GW3329 Weather Reports


Display with metric or nautical units.
time (UTC)temp
F
wind
direction
speed
MPH
gust
MPH
rain 1hr
in
rain 24hr
in
rain mn
in
humidity
%
barometer
mb
20260506073357 50 145 0.0 0.0 0.00 0.00 0.00 93 1021.6
20260506072854 50 145 0.0 0.0 0.00 0.00 0.00 93 1021.5
20260506072351 50 145 0.0 0.0 0.00 0.00 0.00 94 1021.4
20260506071849 51 145 0.0 0.0 0.00 0.00 0.00 94 1021.5
20260506071347 50 145 0.0 0.0 0.00 0.00 0.00 93 1021.3
20260506070843 50 145 0.0 0.0 0.00 0.00 0.00 93 1021.3
20260506070341 51 145 0.0 0.0 0.00 0.00 0.00 93 1021.2
20260506062318 51 145 0.0 0.0 0.00 0.00 0.00 92 1020.8
20260506061814 51 145 0.0 0.0 0.00 0.00 0.00 91 1020.8
20260506061310 52 145 0.0 0.0 0.00 0.00 0.00 91 1020.8
20260506060809 52 145 0.0 0.0 0.00 0.00 0.00 90 1020.8
20260506060307 52 145 0.0 0.0 0.00 0.00 0.00 90 1020.8
20260506051238 53 163 0.0 0.0 0.00 0.00 0.00 89 1020.4
20260506050736 53 163 0.0 0.0 0.00 0.00 0.00 88 1020.7
20260506050233 53 164 0.0 0.0 0.00 0.00 0.00 88 1020.5
20260506044723 54 140 0.0 0.0 0.00 0.00 0.00 87 1020.0
20260506044221 54 178 0.0 1.0 0.00 0.00 0.00 86 1020.0
20260506043718 54 219 0.0 2.0 0.00 0.00 0.00 87 1020.0
20260506043216 54 211 0.0 2.0 0.00 0.00 0.00 87 1020.0
20260506042714 54 186 2.0 2.0 0.00 0.00 0.00 87 1019.8
20260506042213 54 245 0.0 1.0 0.00 0.00 0.00 87 1019.8
20260506041711 54 247 1.0 2.0 0.00 0.00 0.00 87 1019.8
20260506041207 54 277 1.0 2.0 0.00 0.00 0.00 87 1019.8
20260506040705 54 239 1.0 2.0 0.00 0.00 0.00 86 1019.8
20260506040202 54 218 2.0 2.0 0.00 0.00 0.00 86 1019.4
20260506035658 55 220 0.0 2.0 0.00 0.00 0.00 86 1019.4
20260506035155 55 220 1.0 2.0 0.00 0.00 0.00 85 1019.3
20260506034651 55 217 0.0 2.0 0.00 0.00 0.00 85 1019.1
20260506034149 55 217 0.0 1.0 0.00 0.00 0.00 84 1019.1
20260506033646 55 213 1.0 2.0 0.00 0.00 0.00 83 1019.3
20260506033143 55 211 1.0 1.0 0.00 0.00 0.00 82 1019.0
20260506032640 56 260 0.0 2.0 0.00 0.00 0.00 82 1019.3
20260506032137 56 205 1.0 2.0 0.00 0.00 0.00 81 1019.1
20260506031634 56 181 0.0 1.0 0.00 0.00 0.00 80 1019.0
20260506031131 56 178 0.0 1.0 0.00 0.00 0.00 80 1018.6
20260506030630 57 178 0.0 0.0 0.00 0.00 0.00 79 1018.6
20260506030126 57 184 0.0 1.0 0.00 0.00 0.00 78 1018.8
20260506025623 57 179 0.0 1.0 0.00 0.00 0.00 78 1018.5
20260506025118 57 170 0.0 0.0 0.00 0.00 0.00 77 1018.7
20260506024616 58 167 1.0 3.0 0.00 0.00 0.00 76 1018.6
20260506024112 58 181 0.0 0.0 0.00 0.00 0.00 75 1018.4
20260506023608 58 338 0.0 2.0 0.00 0.00 0.00 75 1018.4
20260506023106 58 246 2.0 2.0 0.00 0.00 0.00 75 1018.2
20260506022603 58 120 1.0 2.0 0.00 0.00 0.00 75 1018.1
20260506022101 58 285 1.0 2.0 0.00 0.00 0.00 75 1018.4
20260506021558 58 233 2.0 2.0 0.00 0.00 0.00 75 1018.2
20260506021055 58 197 1.0 2.0 0.00 0.00 0.00 75 1018.2
20260506020553 58 183 0.0 3.0 0.00 0.00 0.00 75 1018.1
20260506020050 58 174 0.0 4.0 0.00 0.00 0.00 75 1018.1
20260506015548 58 158 2.0 4.0 0.00 0.00 0.00 75 1018.0
20260506015044 59 155 2.0 3.0 0.00 0.00 0.00 74 1018.2
20260506014542 59 162 0.0 0.0 0.00 0.00 0.00 74 1018.0
20260506014037 59 264 1.0 3.0 0.00 0.00 0.00 75 1017.9
20260506013536 59 194 5.0 7.0 0.00 0.00 0.00 74 1018.0
20260506013033 59 309 1.0 2.0 0.00 0.00 0.00 73 1017.9
20260506012529 60 172 2.0 6.0 0.00 0.00 0.00 72 1018.0
20260506012026 60 172 5.0 7.0 0.00 0.00 0.00 71 1018.1
20260506011524 61 109 1.0 6.0 0.00 0.00 0.00 71 1018.1
20260506011019 60 201 1.0 6.0 0.00 0.00 0.00 72 1018.0
20260506010514 60 256 4.0 8.0 0.00 0.00 0.00 72 1018.0
20260506010009 60 184 1.0 7.0 0.00 0.00 0.00 71 1018.1
20260506005507 59 231 2.0 11.0 0.00 0.00 0.00 72 1017.8
20260506005002 59 166 1.0 8.0 0.00 0.00 0.00 71 1017.8
20260506004500 59 262 0.0 3.0 0.00 0.00 0.00 71 1018.0
20260506003956 59 166 3.0 6.0 0.00 0.00 0.00 70 1017.9
20260506003453 59 152 1.0 6.0 0.00 0.00 0.00 71 1017.9
20260506002949 59 154 1.0 9.0 0.00 0.00 0.00 73 1017.9
20260506002445 60 103 4.0 8.0 0.00 0.00 0.00 73 1017.7
20260506001940 61 168 2.0 7.0 0.00 0.00 0.00 73 1017.9
20260506001438 61 205 2.0 7.0 0.00 0.00 0.00 74 1017.6
20260506000935 61 176 6.0 14.0 0.00 0.00 0.00 73 1017.9
20260506000432 62 179 4.0 9.0 0.00 0.00 0.00 70 1017.8
20260505235929 62 156 4.0 13.0 0.00 0.00 0.00 69 1017.7
20260505235428 62 208 3.0 7.0 0.00 0.00 0.00 68 1017.6
20260505234924 62 202 4.0 15.0 0.00 0.00 0.00 66 1017.6
20260505234421 64 198 6.0 9.0 0.00 0.00 0.00 62 1017.6
20260505233918 64 218 4.0 6.0 0.00 0.00 0.00 61 1017.5
20260505233416 63 253 5.0 13.0 0.00 0.00 0.00 62 1017.9
20260505232913 63 219 2.0 8.0 0.00 0.00 0.00 62 1017.7
20260505232411 63 188 6.0 10.0 0.00 0.00 0.00 63 1017.7
20260505231907 64 190 5.0 10.0 0.00 0.00 0.00 64 1017.6
20260505231405 63 179 5.0 6.0 0.00 0.00 0.00 62 1017.6
20260505230903 64 173 5.0 7.0 0.00 0.00 0.00 61 1017.6
20260505230400 64 170 3.0 8.0 0.00 0.00 0.00 60 1017.5
20260505225856 64 228 3.0 4.0 0.00 0.00 0.00 62 1017.6
20260505225354 64 271 4.0 8.0 0.00 0.00 0.00 62 1017.7
20260505224849 64 41 2.0 6.0 0.00 0.00 0.00 61 1017.6
20260505224347 64 245 6.0 10.0 0.00 0.00 0.00 60 1018.0
20260505223844 66 314 4.0 9.0 0.00 0.00 0.00 56 1017.8
20260505223341 66 183 9.0 11.0 0.00 0.00 0.00 56 1017.7
20260505222836 68 331 2.0 4.0 0.00 0.00 0.00 54 1017.8
20260505222333 66 195 2.0 6.0 0.00 0.00 0.00 58 1017.9
20260505221830 65 274 7.0 8.0 0.00 0.00 0.00 58 1018.0
20260505221327 65 146 4.0 8.0 0.00 0.00 0.00 59 1017.9
20260505220824 65 169 4.0 9.0 0.00 0.00 0.00 60 1017.7
20260505220321 66 263 8.0 11.0 0.00 0.00 0.00 58 1017.9
20260505215819 65 272 2.0 7.0 0.00 0.00 0.00 61 1018.0
20260505215316 66 188 4.0 14.0 0.00 0.00 0.00 57 1018.0
20260505214814 65 188 3.0 8.0 0.00 0.00 0.00 56 1018.1
20260505214311 66 209 5.0 10.0 0.00 0.00 0.00 58 1018.2
20260505213808 65 248 4.0 14.0 0.00 0.00 0.00 57 1018.2
20260505213306 66 219 6.0 7.0 0.00 0.00 0.00 56 1018.3
20260505212801 68 253 7.0 11.0 0.00 0.00 0.00 54 1018.0
20260505212259 66 274 1.0 9.0 0.00 0.00 0.00 55 1018.3
20260505211755 67 224 6.0 16.0 0.00 0.00 0.00 54 1018.0
20260505211253 67 183 5.0 8.0 0.00 0.00 0.00 53 1018.0
20260505210749 67 211 5.0 11.0 0.00 0.00 0.00 52 1018.0
20260505210246 68 310 4.0 8.0 0.00 0.00 0.00 53 1018.2
20260505205743 67 322 3.0 8.0 0.00 0.00 0.00 52 1018.2
20260505205242 66 233 7.0 14.0 0.00 0.00 0.00 53 1018.1
20260505204738 66 213 4.0 14.0 0.00 0.00 0.00 54 1018.2
20260505204236 66 241 4.0 11.0 0.00 0.00 0.00 55 1018.0
20260505203733 66 163 1.0 6.0 0.00 0.00 0.00 54 1018.1
20260505203230 66 163 4.0 9.0 0.00 0.00 0.00 53 1018.2
20260505202725 67 278 4.0 7.0 0.00 0.00 0.00 52 1018.1
20260505202222 67 180 3.0 7.0 0.00 0.00 0.00 52 1018.1
20260505201718 68 193 3.0 4.0 0.00 0.00 0.00 50 1018.0
20260505201216 68 182 3.0 4.0 0.00 0.00 0.00 50 1017.8
20260505200714 68 136 3.0 7.0 0.00 0.00 0.00 50 1018.2
20260505200211 67 162 2.0 8.0 0.00 0.00 0.00 54 1018.0
20260505195706 66 262 4.0 8.0 0.00 0.00 0.00 55 1018.1
20260505195204 66 263 2.0 6.0 0.00 0.00 0.00 53 1018.2
20260505194701 68 153 2.0 6.0 0.00 0.00 0.00 51 1018.3
20260505194156 67 185 2.0 10.0 0.00 0.00 0.00 53 1018.2
20260505193648 66 189 8.0 10.0 0.00 0.00 0.00 54 1018.1
20260505193145 68 213 3.0 14.0 0.00 0.00 0.00 54 1018.2
20260505192644 69 124 5.0 13.0 0.00 0.00 0.00 51 1018.5
20260505192141 68 161 1.0 6.0 0.00 0.00 0.00 54 1018.2
20260505191639 67 280 5.0 10.0 0.00 0.00 0.00 55 1018.1
20260505191137 68 208 2.0 8.0 0.00 0.00 0.00 54 1018.3
20260505190633 69 197 4.0 6.0 0.00 0.00 0.00 52 1018.2
20260505190132 67 222 3.0 6.0 0.00 0.00 0.00 55 1018.1
20260505185630 69 151 1.0 3.0 0.00 0.00 0.00 55 1018.3
20260505185126 69 183 2.0 3.0 0.00 0.00 0.00 53 1018.0
20260505184623 68 206 1.0 3.0 0.00 0.00 0.00 54 1018.3
20260505184120 67 11 1.0 4.0 0.00 0.00 0.00 56 1018.0
20260505183616 67 221 1.0 6.0 0.00 0.00 0.00 57 1018.3
20260505183114 66 248 4.0 6.0 0.00 0.00 0.00 57 1018.2
20260505182610 66 279 5.0 8.0 0.00 0.00 0.00 56 1018.3
20260505182107 66 106 1.0 4.0 0.00 0.00 0.00 58 1018.3
20260505181604 67 272 3.0 6.0 0.00 0.00 0.00 57 1018.2
20260505181101 66 236 3.0 7.0 0.00 0.00 0.00 59 1018.3
20260505180556 66 269 3.0 4.0 0.00 0.00 0.00 57 1017.9
20260505180055 66 243 6.0 8.0 0.00 0.00 0.00 61 1018.2
20260505175550 65 291 2.0 6.0 0.00 0.00 0.00 60 1018.2
20260505175047 65 327 1.0 4.0 0.00 0.00 0.00 59 1018.1
20260505174544 64 161 1.0 2.0 0.00 0.00 0.00 58 1018.0
20260505174040 65 40 2.0 3.0 0.00 0.00 0.00 59 1018.2
20260505173537 65 232 2.0 3.0 0.00 0.00 0.00 57 1018.1
20260505173033 64 182 2.0 7.0 0.00 0.00 0.00 57 1018.1
20260505172531 65 208 5.0 7.0 0.00 0.00 0.00 56 1018.1
20260505172027 64 216 0.0 7.0 0.00 0.00 0.00 58 1018.1
20260505171522 65 242 1.0 4.0 0.00 0.00 0.00 57 1018.0
20260505171020 64 94 0.0 1.0 0.00 0.00 0.00 60 1017.9
20260505170516 63 88 0.0 1.0 0.00 0.00 0.00 59 1017.9
20260505170013 63 121 0.0 1.0 0.00 0.00 0.00 60 1017.8
20260505165508 64 30 1.0 3.0 0.00 0.00 0.00 55 1017.8
20260505165004 64 283 5.0 7.0 0.00 0.00 0.00 56 1017.8
20260505164500 63 106 1.0 1.0 0.00 0.00 0.00 65 1018.0
20260505163958 62 82 0.0 1.0 0.00 0.00 0.00 66 1017.8
20260505163456 62 194 1.0 2.0 0.00 0.00 0.00 66 1017.8
20260505162956 62 200 0.0 1.0 0.00 0.00 0.00 66 1017.8
20260505162451 61 156 1.0 4.0 0.00 0.00 0.00 69 1017.9
20260505161948 61 244 0.0 2.0 0.00 0.00 0.00 68 1017.7
20260505161445 60 182 0.0 1.0 0.00 0.00 0.00 69 1017.7
20260505160942 60 145 1.0 3.0 0.00 0.00 0.00 67 1017.9
20260505160440 59 156 1.0 2.0 0.00 0.00 0.00 71 1017.5
20260505152916 57 212 1.0 1.0 0.00 0.00 0.00 81 1017.7
20260505152413 56 187 0.0 2.0 0.00 0.00 0.00 83 1017.8
20260505151908 57 146 0.0 1.0 0.00 0.00 0.00 82 1017.5
20260505151404 58 200 1.0 2.0 0.00 0.00 0.00 80 1017.6
20260505150901 58 61 0.0 4.0 0.00 0.00 0.00 81 1017.6
20260505150359 58 171 1.0 2.0 0.00 0.00 0.00 81 1017.5
20260505140323 51 171 0.0 0.0 0.00 0.00 0.00 95 1017.4
20260505130246 48 177 0.0 0.0 0.00 0.00 0.00 96 1017.1
20260505124736 48 177 0.0 0.0 0.00 0.00 0.00 96 1017.1
20260505124233 49 177 0.0 0.0 0.00 0.00 0.00 96 1017.3
20260505123729 49 177 0.0 0.0 0.00 0.00 0.00 96 1017.2
20260505123226 50 177 0.0 0.0 0.00 0.00 0.00 96 1017.0
20260505122723 50 177 0.0 0.0 0.00 0.00 0.00 96 1017.1
20260505122220 49 177 0.0 0.0 0.00 0.00 0.00 96 1017.2
20260505121716 49 177 0.0 0.0 0.00 0.00 0.00 96 1017.1
20260505121213 49 177 0.0 0.0 0.00 0.00 0.00 96 1017.1
20260505120710 49 177 0.0 0.0 0.00 0.00 0.00 96 1017.3
20260505120205 49 178 0.0 0.0 0.00 0.00 0.00 96 1017.1
20260505115659 49 178 0.0 0.0 0.00 0.00 0.00 95 1017.1
20260505115157 49 178 0.0 0.0 0.00 0.00 0.00 95 1017.1
20260505114654 50 179 0.0 0.0 0.00 0.00 0.00 95 1017.4
20260505114150 50 179 0.0 0.0 0.00 0.00 0.00 96 1017.1
20260505113647 50 179 0.0 0.0 0.00 0.00 0.00 95 1017.2
20260505113143 50 187 0.0 0.0 0.00 0.00 0.00 95 1017.0
20260505112640 50 185 0.0 0.0 0.00 0.00 0.00 95 1017.1
20260505112138 50 195 0.0 0.0 0.00 0.00 0.00 95 1017.3
20260505111637 51 207 0.0 0.0 0.00 0.00 0.00 95 1017.2
20260505111133 51 209 0.0 0.0 0.00 0.00 0.00 95 1017.3
20260505110630 51 208 0.0 0.0 0.00 0.00 0.00 95 1017.2
20260505110127 51 207 0.0 0.0 0.00 0.00 0.00 95 1017.2
20260505102103 52 213 0.0 0.0 0.00 0.00 0.00 93 1017.1
20260505101601 52 213 0.0 0.0 0.00 0.00 0.00 93 1017.3
20260505101057 52 214 0.0 0.0 0.00 0.00 0.00 93 1017.2
20260505100554 52 214 0.0 0.0 0.00 0.00 0.00 93 1017.1
20260505100050 52 214 0.0 0.0 0.00 0.00 0.00 92 1017.5
20260505095547 53 214 0.0 0.0 0.00 0.00 0.00 92 1017.4
20260505095043 53 183 0.0 0.0 0.00 0.00 0.00 92 1017.4
20260505094540 53 183 0.0 0.0 0.00 0.00 0.00 92 1017.3
20260505094036 53 181 0.0 0.0 0.00 0.00 0.00 92 1017.4
20260505093533 53 129 0.0 0.0 0.00 0.00 0.00 91 1017.5
20260505093030 53 129 0.0 0.0 0.00 0.00 0.00 91 1017.7
20260505092527 53 173 0.0 0.0 0.00 0.00 0.00 91 1017.5
20260505092026 53 174 0.0 0.0 0.00 0.00 0.00 91 1017.5
20260505091522 53 170 0.0 0.0 0.00 0.00 0.00 91 1017.6
20260505091020 53 172 0.0 0.0 0.00 0.00 0.00 90 1017.9
20260505090518 53 183 0.0 0.0 0.00 0.00 0.00 90 1017.9
20260505090016 53 178 0.0 0.0 0.00 0.00 0.00 90 1017.9
20260505085514 53 167 0.0 0.0 0.00 0.00 0.00 89 1018.0
20260505085011 53 167 0.0 0.0 0.00 0.00 0.00 89 1018.2
20260505084509 53 166 0.0 0.0 0.00 0.00 0.00 88 1018.1
20260505084007 53 182 0.0 0.0 0.00 0.00 0.00 88 1018.1
20260505083504 53 189 0.0 0.0 0.00 0.00 0.00 88 1017.9
20260505083000 54 189 0.0 0.0 0.00 0.00 0.00 87 1018.2
20260505082456 54 181 0.0 0.0 0.00 0.00 0.00 88 1018.4
20260505081953 54 182 0.0 0.0 0.00 0.00 0.00 87 1018.2
20260505081450 54 182 0.0 0.0 0.00 0.00 0.00 87 1018.4
20260505080946 54 185 0.0 0.0 0.00 0.00 0.00 87 1018.4
20260505080443 54 172 0.0 0.0 0.00 0.00 0.00 87 1018.2
20260505075938 54 170 0.0 0.0 0.00 0.00 0.00 88 1018.3
20260505075435 54 158 0.0 0.0 0.00 0.00 0.00 88 1018.6
20260505074933 54 159 0.0 0.0 0.00 0.00 0.00 88 1018.5
20260505074430 54 170 0.0 1.0 0.00 0.00 0.00 87 1018.5